Home   Weather   Kearney   Past weeks
Flag for USA

Past Weather in Kearney, Nebraska, USA — Yesterday and Last 2 Weeks

Now
76 °F

Passing clouds.


Feels Like: 78 °F
Forecast: 74 / 59 °F
Wind: 12 mph from Northeast

Location: Kearney Municipal

Current Time: Jul 22, 2019 at 3:52:58 pm

Latest Report: Jul 22, 2019 at 2:56 pm


Visibility: 10 mi

Pressure: 30.28 "Hg (28.08 "Hg at 655m altitude)

Humidity: 54%

Dew Point: 58 °F

Location of KearneyLocation

Past Weather in Kearney — Graph

°F

Kearney Temperature Yesterday

Maximum temperature yesterday: 77 °F (at 4:28 pm)
Minimum temperature yesterday: 64 °F (at 4:53 am)
Average temperature yesterday: 69 °F

High & Low Weather Summary for the Past Weeks

 TemperatureHumidityPressure
High95 °F (Jul 19, 3:56 pm)100% (Jul 8, 9:24 pm)30.31 "Hg (Jul 8, 9:24 pm)
Low59 °F (Jul 22, 5:56 am)42% (Jul 10, 2:56 pm)29.64 "Hg (Jul 18, 6:56 pm)
Average76 °F76%29.92 "Hg
* Reported Jul 7 1:56 pm — Jul 22 1:56 pm, Kearney. Weather by CustomWeather, © 2019

Note: Actual official high and low records may vary slightly from our data, if they occured in-between our weather recording intervals... More about our weather records

Advertising

Kearney Weather History for the Previous 24 Hours

Scroll right to see more
 ConditionsComfort  
Time TempWeatherWind HumidityBarometerVisibility
1:56 pm
Mon, Jul 22
75 °FSunny.10 mph55%30.29 "Hg10 mi
12:56 pm74 °FSunny.14 mph60%30.30 "Hg10 mi
11:56 am73 °FSunny.13 mph59%30.30 "Hg10 mi
10:56 am71 °FSunny.13 mph66%30.30 "Hg10 mi
9:56 am68 °FSunny.8 mph73%30.31 "Hg10 mi
8:56 am65 °FSunny.5 mph78%30.31 "Hg10 mi
7:56 am61 °FSunny.8 mph90%30.29 "Hg10 mi
6:56 am59 °FSunny.8 mph90%30.27 "Hg10 mi
5:56 am59 °FClear.8 mph90%30.25 "Hg10 mi
4:56 am60 °FClear.9 mph93%30.23 "Hg10 mi
3:56 am61 °FClear.6 mph93%30.23 "Hg10 mi
2:56 am63 °FClear.8 mph90%30.23 "Hg10 mi
1:56 am64 °FPassing clouds.7 mph90%30.22 "Hg10 mi
12:56 am64 °FOvercast.9 mph81%30.21 "Hg10 mi
11:56 pm
Sun, Jul 21
65 °FMostly cloudy.10 mph73%30.19 "Hg10 mi
10:56 pm67 °FOvercast.10 mph73%30.19 "Hg10 mi
9:56 pm67 °FOvercast.9 mph87%30.17 "Hg10 mi
8:56 pm68 °FPassing clouds.12 mph82%30.14 "Hg10 mi
8:14 pm72 °FMostly cloudy.14 mph83%30.15 "Hg10 mi
7:56 pm73 °FPartly sunny.18 mph79%30.11 "Hg10 mi
6:56 pm76 °FSunny.16 mph74%30.08 "Hg10 mi
5:56 pm76 °FScattered clouds.16 mph74%30.09 "Hg10 mi
4:56 pm77 °FBroken clouds.15 mph71%30.08 "Hg10 mi
4:28 pm77 °FPartly sunny.14 mph65%30.12 "Hg10 mi
3:56 pm76 °FPassing clouds.9 mph69%30.06 "Hg10 mi
3:20 pm73 °FBroken clouds.9 mph78%30.11 "Hg10 mi
Weather by CustomWeather, © 2019

See weather overview